Weather in Chekmagush

Russia / Republic of Bashkortostan     55°08′23″N   54°39′06″E
temp.,
°C
wind,
m/s
gust,
m/s
humid.,
%
clouds,
%
prec.,
mm/h
press.,
hPa
HPBL,
m
31 july, sat
sat3123:00+19wsw36795 0.2 100788
02:00+18wsw3386100 0.0 100738
05:00+17ssw3385100 0.0 100737
08:00+21s4869100 0.0 1007268
11:00+21s497793 0.4 1006325
14:00+30sw7114346 0.3 10042210
17:00+29w6104496 0.4 10031481
20:00+27wnw595080 0.1 1004458
1 august, sun
sun123:00+20w368396 1.5 100699
02:00+18wsw488747 0.0 1008131
05:00+18wsw38920 0.0 1008136
08:00+20w48812 0.0 1010291
11:00+27w69370 0.0 10102073
14:00+29w783065 0.0 10103024
17:00+29wnw78299 0.0 10112789
20:00+26wnw473987 0.0 1012213
2 august, mon
mon223:00+20nne1155100 0.0 101311
02:00+19s226174 0.0 101311
05:00+18ssw22638 0.0 101417
08:00+22wsw245426 0.0 1015157
11:00+28w34379 0.0 10151708
14:00+31w45286 0.0 10142264
17:00+32w34265 0.0 10132623
20:00+29wsw223611 0.0 101313
3 august, tue
tue323:00+24sw22420 0.0 101311
02:00+22s22460 0.0 101312
05:00+21ssw22474 0.0 101313
08:00+24s23420 0.0 1014109
11:00+32s45270 0.0 1012874
14:00+36sw46206 0.0 10113707
17:00+33s342384 0.0 1010563
20:00+24e365587 0.6 101084
4 august, wed
wed423:00+23se7165875 1.1 1011262
02:00+19sse34717 0.1 101055
05:00+21s375514 0.1 101096
08:00+24e114647 0.0 101174
11:00+32s572597 0.0 1009912
14:00+37sw81115100 0.0 10083364
17:00+34wnw7919100 0.0 10081686
20:00+31wsw3527100 0.0 100999